#timestamp,LO_Frequency,Hit,StdDev 
1529845215.2,286047000.7,P
1529845235.1,286046998.1,P
1529845236.0,286046998.1,N
1529845255.8,286047001.1,N
1529845275.6,286046999.4,N
1529845295.5,286047000.4,N
1529845315.3,286047001.2,N
1529845335.2,286047000.3,N
1529845355.9,286047000.9,N
1529845375.7,286047001.1,N
1529845395.6,286047000.3,N
1529845415.4,286047000.0,N
1529845435.2,286047000.1,N
1529845455.1,286047001.0,N
1529845456.0,286047001.0,N
1529845475.8,286047001.0,N
1529845495.7,286047000.8,N
1529845515.5,286047000.6,N
1529845535.3,286046998.7,N
1529845555.2,286046999.5,N
1529845575.0,286046999.2,N
1529845575.9,286046999.2,N
1529845595.8,286046998.5,N
1529845615.6,286047001.1,N
1529845635.4,286046998.1,N
1529845655.3,286046999.7,N
1529845675.1,286046999.7,N
1529845695.9,286047000.6,N
1529845715.7,286047002.8,N
1529845735.5,286047000.0,N
1529845755.4,286047002.4,N
1529845775.2,286047002.4,N
1529845795.0,286047000.4,N
1529845795.9,286047000.4,N
1529845815.8,286047000.4,N
1529845835.6,286047000.3,N
1529845855.5,286047002.5,N
1529845875.3,286047000.1,N
1529845895.1,286047000.0,N
1529845915.9,286047000.2,N
1529845935.7,286047000.0,N
1529845955.5,286047000.1,N
1529845975.4,286047002.0,N
1529845995.2,286047002.6,N
1529846015.1,286046999.8,N
1529846016.0,286046999.8,N
1529846035.8,286046999.9,N
1529846055.6,286046999.9,N
1529846075.5,286047000.6,N
1529846095.3,286047000.3,N
1529846115.1,286047000.2,N
1529846135.9,286046998.2,N
1529846155.7,286047001.0,N
1529846175.6,286046998.5,N
1529846195.4,286047000.1,N
1529846215.2,286047002.4,N
1529846235.1,286047002.2,N
1529846236.0,286047002.2,N
1529846255.8,286047000.8,N
1529846275.6,286047000.1,N
1529846295.5,286046999.9,N
1529846315.3,286047000.7,N
1529846335.2,286046998.9,N
1529846355.9,286046999.6,N
1529846375.7,286046999.6,N
1529846395.6,286046998.6,N
1529846415.4,286046998.9,N
1529846435.2,286047001.1,N
1529846455.1,286046998.6,N
1529846456.0,286046998.6,N
1529846475.8,286046999.0,N
1529846495.7,286046999.0,N
1529846515.5,286046999.4,N
1529846535.3,286046998.4,N
1529846555.2,286047000.7,N
1529846575.0,286047000.1,N
1529846575.9,286047000.1,N
1529846595.7,286047001.1,N
1529846615.6,286047001.0,N
1529846635.4,286046998.5,N
1529846655.3,286046998.1,N
1529846675.1,286046998.5,N
1529846676.0,286046998.5,N
1529846695.8,286046998.2,N
1529846715.7,286046999.3,N
1529846735.5,286046997.7,N
1529846755.3,286046997.2,N
1529846775.2,286046996.8,N
1529846795.0,286046996.5,Y
1529846795.9,286046996.5,P
1529846815.8,286046999.4,N
1529846835.6,286046999.4,N
1529846855.4,286046996.8,N
1529846875.3,286046996.9,N
1529846895.1,286046996.9,N
1529846915.8,286046997.6,N
1529846935.7,286046997.3,N
1529846955.5,286046997.3,N
1529846975.4,286046996.8,N
1529846995.2,286046997.3,N
1529847015.0,286046997.5,N
1529847015.9,286046997.5,N
1529847035.8,286046994.9,Y
1529847055.6,286046998.5,P
1529847075.4,286046999.3,N
1529847095.3,286047001.0,N
1529847115.1,286046998.4,N
1529847135.9,286046998.1,N
1529847155.7,286047000.3,N
1529847175.5,286046998.1,N
1529847195.5,286046998.9,N
1529847215.3,286046998.4,N
1529847235.1,286046998.0,N
1529847255.9,286046995.2,Y
1529847275.7,286046996.6,P
1529847295.5,286046998.4,N
1529847315.4,286047001.2,N
1529847335.2,286047002.5,N
1529847355.1,286047002.0,N
1529847356.0,286047002.0,N
1529847375.8,286047000.9,N
1529847395.6,286047001.0,N
1529847415.5,286046998.7,N
1529847435.3,286046998.6,N
1529847455.1,286046998.8,N
1529847475.9,286047002.5,N
1529847495.7,286047000.5,N
1529847515.6,286046998.2,N
1529847535.4,286047001.0,N
1529847555.2,286047000.7,N
1529847575.1,286046998.8,N
1529847576.0,286046998.8,N
1529847595.8,286046998.3,N
1529847615.6,286046998.4,N
1529847635.5,286047001.2,N
1529847655.3,286047000.8,N
1529847675.1,286047000.8,N
1529847695.9,286047000.3,N
1529847715.7,286047001.1,N
1529847735.6,286047001.1,N
1529847755.4,286047000.8,N
1529847775.2,286046998.3,N
1529847795.1,286046998.4,N
1529847796.0,286046998.4,N
1529847815.8,286047000.9,N
1529847835.7,286047001.0,N
1529847855.5,286047000.4,N
1529847875.3,286047000.5,N
1529847895.2,286047000.6,N
1529847915.0,286046998.4,N
1529847915.9,286046998.4,N
1529847935.7,286046998.2,N
1529847955.6,286047001.2,N
1529847975.4,286046998.6,N
1529847995.3,286046998.5,N
1529848015.1,286046998.9,N
1529848016.0,286046998.9,N
1529848035.8,286046999.4,N
1529848055.7,286046998.6,N
1529848075.5,286047001.2,N
1529848095.3,286046999.4,N
1529848115.2,286046999.3,N
1529848135.0,286046998.3,N
1529848135.9,286046998.3,N
1529848155.8,286046999.4,N
1529848175.6,286046998.9,N
1529848195.4,286046996.5,Y
1529848215.3,286046999.3,P
1529848235.1,286046997.8,P
1529848255.9,286046995.4,P
1529848275.7,286046995.1,N
1529848295.5,286046995.4,N
1529848315.4,286046996.1,N
1529848335.2,286046995.2,N
1529848355.1,286046995.4,N
1529848356.0,286046995.4,N
1529848375.8,286046995.1,N
1529848395.6,286046995.3,N
1529848415.5,286046995.2,Y
1529848435.3,286047000.4,P
1529848455.2,286047000.6,N
1529848475.9,286047000.7,N
1529848495.7,286047000.6,N
1529848515.6,286047000.2,N
1529848535.4,286047000.4,N
1529848555.2,286046998.5,N
1529848575.1,286046998.7,N
1529848576.0,286046998.7,N
1529848595.8,286046998.3,N
1529848615.7,286047001.2,N
1529848635.5,286047001.2,N
1529848655.3,286046998.5,N
1529848675.2,286047000.9,N
1529848695.0,286047001.0,N
1529848695.9,286047001.0,N
1529848715.8,286046998.6,N
1529848735.6,286047001.0,N
1529848755.4,286046998.8,N
1529848775.3,286046998.5,N
1529848795.1,286046998.9,N
